Torna al catalogo

STARLINK-34813

AttivoComunicazioniVLEO
NORAD 66195·PAYLOAD·🇺🇸 United States

Lanciato Oct 26, 2025 da Cape Canaveral Space Force Station

Loading…

Prossimi Passaggi (prossime 24 ore)

TLE

AggiornatoSource: CelesTrak SupGP

Epoca: Sep 14, 2026, 21:32 UTC

1 66195C 25243U   26257.89770833  .00024289  00000+0  71775-3 0  2571
2 66195  53.1582  83.6042 0001282  77.6216 217.0290 15.34373176    10

Traccia STARLINK-34813 in tempo reale con AllMySat

Download on the App Store